DECAYED

STARLINK-30241, 57298 (Decayed)

Orbit data source: Space-Track

STARLINK-30241, 57298 was a payload satellite owned by SpaceX/Seattle (US) in LEO that was launched on Mon, 10 Jul 2023 UTC via an FALCON 9 launch vehicle from the Air Force Eastern Test Range (AFETR). Payload-class satellites include a variety of spacecraft equipped with specific instruments for various scientific and technological missions. These include communications satellites like Starlink; space stations such as the ISS; scientific satellites like the Hubble; Earth observation satellites from companies like Planet Labs, Umbra, and HawkEye 360; GPS; miniature CubeSats for education and research; and military/defense satellites.

Not visible in the next 10 days
Identifier
57298, 2023-096J
Orbit
Decayed
Country
Flag of USUS
Related business
Manufacturer
SpaceX/Seattle
Mission
Decayed Commercial Communications
Bus & Motor
STARLINK V2M, Unknown motor
Mass
730 kg wet, ~700 kg dry
Launch date (UTC)
2023-07-10 (3 years ago)
Launch vehicle
FALCON 9
Launch site
Air Force Eastern Test Range (AFETR)
Object type
Payload
Rocket body
Debris
Shape & HBR
Box + 2 Pan, 17.7 m
Radar Cross Section
33.884 m², Large (>1 m²)

Expand to show TLE details & history
Last TLE update: 4 months ago

TLE from 4 months ago
0 STARLINK-30241
1 57298U 23096J   26046.02487272  .10294572  89828-5  35152-2 0  9999
2 57298  42.9571 262.8466 0021531 275.2600  84.5829 16.23826978145175
Epoch: 2026-02-15T00:35Z
TLE epoch observation values (Epoch: 2026-02-15T00:35:49.003Z)
Latitude
-0.00008°
Longitude
108.85284°
Altitude
207.634 km
Speed
7.785 km/s
True Right ascension
17h 31m 23s
True Declination
0° 00' 00"
Sunlit
Object was in daylight at epoch
Visualization orbit readout
Latitude
Unknown
Longitude
Unknown
Altitude
Unknown
Speed
Unknown
Apparent Right ascension
Unknown
Apparent Declination
Unknown
Sunlit
N/A
Visualization observer readout
Local Sidereal Time
21:52:26
Azimuth
Unknown
Elevation
Unknown
Doppler factor
Unknown
Orbital elements
Apogee altitude
225.402 km
Perigee altitude
197.027 km
Semi-major axis
6,589.352 km
Eccentricity
0.00215
Inclination
42.9571°
RAAN
262.8466°
Arg. of periapsis
275.26°
True anomaly
84.82859°
Mean anomaly
84.5829°
Eccentric anomaly
84.70574°
Mean motion
4.05769 °/min
Orbital period
88.72 mins
BSTAR
0.0035152
Loading maneuver chart data...
Computing Atmospheric mass density...

Documentation

Showing up to 5 results
|